EN

Hourly Weather Panambi

Today, 7 March, Sunday

Time Temperature Precipitation Wind Pressure Humidity
00:00 +16°C° 0 mm 2 mps 721 mmHg 90%
01:00 +16°C° 0 mm 2 mps 721 mmHg 91%
02:00 +15°C° 0 mm 2 mps 720 mmHg 92%
03:00 +15°C° 0 mm 2 mps 720 mmHg 93%
04:00 +15°C° 0 mm 2 mps 720 mmHg 94%
05:00 +15°C° 0 mm 2 mps 720 mmHg 95%
06:00 +17°C° 0 mm 2 mps 721 mmHg 90%
07:00 +19°C° 0 mm 2 mps 722 mmHg 85%
08:00 +21°C° 0 mm 2 mps 722 mmHg 80%
09:00 +24°C° 0 mm 2 mps 722 mmHg 74%
10:00 +25°C° 0 mm 1 mps 722 mmHg 69%
11:00 +27°C° 0 mm 1 mps 722 mmHg 63%
12:00 +27°C° 0 mm 1 mps 722 mmHg 60%
13:00 +28°C° 0 mm 1 mps 721 mmHg 58%
14:00 +28°C° 0 mm 1 mps 721 mmHg 55%
15:00 +28°C° 0 mm 1 mps 720 mmHg 60%
16:00 +27°C° 0 mm 1 mps 720 mmHg 65%
17:00 +26°C° 0 mm 1 mps 720 mmHg 70%
18:00 +24°C° 0 mm 2 mps 720 mmHg 72%
19:00 +21°C° 0 mm 2 mps 720 mmHg 74%
20:00 +19°C° 0 mm 2 mps 720 mmHg 76%
21:00 +18°C° 0 mm 2 mps 720 mmHg 77%
22:00 +18°C° 0 mm 3 mps 721 mmHg 79%
23:00 +17°C° 0 mm 3 mps 721 mmHg 81%

Tomorrow, 8 March, Monday

Time Temperature Precipitation Wind Pressure Humidity
00:00 +17°C° 0 mm 3 mps 720 mmHg 83%
01:00 +16°C° 0 mm 2 mps 720 mmHg 84%
02:00 +16°C° 0 mm 2 mps 720 mmHg 85%
03:00 +16°C° 0 mm 2 mps 720 mmHg 87%
04:00 +16°C° 0 mm 2 mps 720 mmHg 89%
05:00 +16°C° 0 mm 2 mps 720 mmHg 91%
06:00 +19°C° 0 mm 1 mps 721 mmHg 86%
07:00 +21°C° 0 mm 1 mps 721 mmHg 81%
08:00 +23°C° 0 mm 1 mps 722 mmHg 76%
09:00 +25°C° 0 mm 1 mps 722 mmHg 70%
10:00 +26°C° 0 mm 2 mps 722 mmHg 64%
11:00 +28°C° 0 mm 2 mps 722 mmHg 59%
12:00 +28°C° 0 mm 2 mps 722 mmHg 57%
13:00 +29°C° 0 mm 2 mps 721 mmHg 55%
14:00 +29°C° 0 mm 1 mps 721 mmHg 53%
15:00 +28°C° 0 mm 1 mps 721 mmHg 59%
16:00 +27°C° 0 mm 2 mps 720 mmHg 65%
17:00 +27°C° 0 mm 2 mps 720 mmHg 70%
18:00 +25°C° 0 mm 2 mps 720 mmHg 71%
19:00 +23°C° 0 mm 2 mps 721 mmHg 72%
20:00 +20°C° 0 mm 3 mps 721 mmHg 73%
21:00 +19°C° 0 mm 2 mps 721 mmHg 74%
22:00 +18°C° 0 mm 2 mps 721 mmHg 76%
23:00 +18°C° 0 mm 2 mps 721 mmHg 78%

Day after tomorrow, 9 March, Tuesday

Time Temperature Precipitation Wind Pressure Humidity
00:00 +17°C° 0 mm 2 mps 720 mmHg 81%
01:00 +17°C° 0 mm 2 mps 720 mmHg 83%
02:00 +16°C° 0 mm 2 mps 720 mmHg 86%
03:00 +16°C° 0 mm 1 mps 720 mmHg 87%
04:00 +16°C° 0 mm 1 mps 720 mmHg 88%
05:00 +15°C° 0 mm 1 mps 720 mmHg 90%
06:00 +17°C° 0 mm 2 mps 720 mmHg 86%
07:00 +19°C° 0 mm 2 mps 721 mmHg 82%
08:00 +21°C° 0 mm 2 mps 721 mmHg 78%
09:00 +24°C° 0 mm 2 mps 721 mmHg 73%
10:00 +25°C° 0 mm 2 mps 721 mmHg 67%
11:00 +27°C° 0 mm 2 mps 721 mmHg 61%
12:00 +27°C° 0 mm 2 mps 721 mmHg 60%
13:00 +28°C° 0 mm 2 mps 721 mmHg 59%
14:00 +28°C° 0 mm 2 mps 720 mmHg 58%
15:00 +27°C° 0.1 mm 3 mps 720 mmHg 65%
16:00 +26°C° 0.1 mm 3 mps 720 mmHg 72%
17:00 +25°C° 0.1 mm 4 mps 720 mmHg 80%
18:00 +22°C° 0.1 mm 4 mps 720 mmHg 84%
19:00 +21°C° 0.1 mm 4 mps 720 mmHg 88%
20:00 +19°C° 0.1 mm 4 mps 720 mmHg 92%
21:00 +19°C° 0 mm 4 mps 720 mmHg 93%
22:00 +18°C° 0 mm 3 mps 720 mmHg 94%
23:00 +17°C° 0 mm 3 mps 720 mmHg 95%

10 March, Wednesday

Time Temperature Precipitation Wind Pressure Humidity
00:00 +17°C° 0 mm 3 mps 720 mmHg 96%
01:00 +16°C° 0 mm 3 mps 719 mmHg 96%
02:00 +16°C° 0 mm 3 mps 719 mmHg 97%
03:00 +16°C° 0 mm 3 mps 719 mmHg 97%
04:00 +15°C° 0 mm 2 mps 719 mmHg 97%
05:00 +15°C° 0 mm 2 mps 720 mmHg 97%
06:00 +16°C° 0 mm 3 mps 720 mmHg 94%
07:00 +18°C° 0 mm 3 mps 721 mmHg 91%
08:00 +19°C° 0 mm 3 mps 721 mmHg 89%
09:00 +21°C° 0 mm 3 mps 721 mmHg 80%
10:00 +24°C° 0 mm 3 mps 721 mmHg 72%
11:00 +26°C° 0 mm 3 mps 721 mmHg 64%
12:00 +26°C° 0 mm 3 mps 721 mmHg 60%
13:00 +27°C° 0 mm 3 mps 720 mmHg 57%
14:00 +28°C° 0 mm 3 mps 720 mmHg 54%
15:00 +27°C° 0 mm 3 mps 719 mmHg 59%
16:00 +26°C° 0 mm 3 mps 719 mmHg 65%
17:00 +25°C° 0 mm 2 mps 718 mmHg 70%
18:00 +22°C° 0 mm 3 mps 719 mmHg 72%
19:00 +20°C° 0 mm 3 mps 719 mmHg 75%
20:00 +19°C° 0 mm 3 mps 719 mmHg 77%
21:00 +18°C° 0 mm 3 mps 719 mmHg 82%
22:00 +17°C° 0 mm 3 mps 719 mmHg 87%
23:00 +17°C° 0 mm 3 mps 719 mmHg 93%

11 March, Thursday

Time Temperature Precipitation Wind Pressure Humidity
00:00 +16°C° 0 mm 3 mps 719 mmHg 93%
01:00 +16°C° 0 mm 3 mps 719 mmHg 94%
02:00 +16°C° 0 mm 3 mps 719 mmHg 94%
03:00 +14°C° 0 mm 3 mps 719 mmHg 94%
04:00 +14°C° 0 mm 3 mps 719 mmHg 93%
05:00 +15°C° 0 mm 2 mps 719 mmHg 93%
06:00 +17°C° 0 mm 2 mps 719 mmHg 87%
07:00 +19°C° 0 mm 2 mps 720 mmHg 81%
08:00 +21°C° 0 mm 2 mps 720 mmHg 75%
09:00 +24°C° 0 mm 1 mps 720 mmHg 68%
10:00 +26°C° 0 mm 1 mps 720 mmHg 62%
11:00 +29°C° 0 mm 1 mps 720 mmHg 55%
12:00 +29°C° 0 mm 1 mps 720 mmHg 51%
13:00 +30°C° 0 mm 1 mps 720 mmHg 47%
14:00 +30°C° 0 mm 1 mps 719 mmHg 43%
15:00 +29°C° 0 mm 1 mps 719 mmHg 49%
16:00 +28°C° 0 mm 1 mps 719 mmHg 54%
17:00 +27°C° 0 mm 1 mps 718 mmHg 60%
18:00 +25°C° 0 mm 1 mps 719 mmHg 61%
19:00 +23°C° 0 mm 2 mps 719 mmHg 61%
20:00 +20°C° 0 mm 2 mps 720 mmHg 62%
21:00 +19°C° 0 mm 3 mps 720 mmHg 66%
22:00 +19°C° 0 mm 3 mps 720 mmHg 69%
23:00 +18°C° 0 mm 3 mps 720 mmHg 72%

12 March, Friday

Time Temperature Precipitation Wind Pressure Humidity
00:00 +18°C° 0 mm 3 mps 720 mmHg 77%
01:00 +17°C° 0 mm 3 mps 720 mmHg 81%
02:00 +17°C° 0 mm 3 mps 720 mmHg 86%
03:00 +17°C° 0 mm 3 mps 720 mmHg 85%
04:00 +16°C° 0 mm 3 mps 720 mmHg 85%
05:00 +16°C° 0 mm 2 mps 720 mmHg 85%
06:00 +18°C° 0 mm 2 mps 720 mmHg 80%
07:00 +20°C° 0 mm 2 mps 721 mmHg 75%
08:00 +23°C° 0 mm 2 mps 721 mmHg 71%
09:00 +25°C° 0 mm 1 mps 721 mmHg 66%
10:00 +27°C° 0 mm 1 mps 721 mmHg 62%
11:00 +29°C° 0 mm 1 mps 722 mmHg 57%
12:00 +30°C° 0 mm 1 mps 721 mmHg 53%
13:00 +31°C° 0 mm 1 mps 721 mmHg 49%
14:00 +31°C° 0 mm 1 mps 720 mmHg 45%
15:00 +30°C° 0 mm 1 mps 720 mmHg 50%
16:00 +29°C° 0 mm 1 mps 720 mmHg 55%
17:00 +28°C° 0 mm 1 mps 719 mmHg 60%
18:00 +26°C° 0 mm 2 mps 719 mmHg 63%
19:00 +24°C° 0 mm 2 mps 720 mmHg 65%
20:00 +21°C° 0 mm 2 mps 720 mmHg 68%
21:00 +20°C° 0 mm 3 mps 720 mmHg 70%
22:00 +19°C° 0 mm 3 mps 721 mmHg 73%
23:00 +19°C° 0 mm 3 mps 721 mmHg 75%
Show more

We Need Your Consent

Meteoprog and our Service Providers may store and access personal data such as cookies, device identifiers or other similar technologies on your device and process such data to personalise content and ads, as well as provide social media features and to analyse the traffic.

  • Store and/or access information on your device

    Cookies, device identifiers or other information can be stored or accessed on your device for the purposes indicated above.

  • Personalised ads and content, ad and content measurement, audience insights, and products development

    Ads and content can be personalised based on a profile. More data can be added to better personalise ads and content. Ad and content performance can be measured. Insights about the audience who saw the ads and content can be derived. Such data can be used to develop or improve user’s experience, systems and software.

By clicking ‘I Agree’ you will allow the use of indicated cookies, device identifiers, web beacons or other similar technologies. Your settings can be changed in the browser on your device.

For certain purposes, legitimate interests may be relied on, rather than consent. You can read more about this in our Privacy and Cookie Policy.